Time,TemperatureF,DewpointF,PressureIn,WindDirection,WindDirectionDegrees,WindSpeedMPH,WindSpeedGustMPH,Humidity,HourlyPrecipIn,Conditions,Clouds,dailyrainin,SoftwareType,DateUTC
2013-08-10 09:20:00,81.7,75.0,30.25,NNE,27,11.1,11.8,79,0.00,,,0.25,TxWx,2013-08-10 14:20:00,
2013-08-10 09:21:00,81.4,73.0,30.25,NNW,342,12.4,12.4,78,0.00,,,0.25,TxWx,2013-08-10 14:21:00,
2013-08-10 09:22:00,81.5,73.0,30.25,NNE,27,8.0,8.0,78,0.00,,,0.25,TxWx,2013-08-10 14:22:00,
2013-08-10 09:24:00,81.4,73.0,30.26,NNE,27,9.3,9.9,78,0.00,,,0.25,TxWx,2013-08-10 14:24:00,
2013-08-10 09:25:00,81.7,75.0,30.26,NNE,27,7.4,7.4,79,0.00,,,0.25,TxWx,2013-08-10 14:25:00,
2013-08-10 09:26:00,81.6,75.0,30.25,NNE,27,6.8,7.4,79,0.00,,,0.25,TxWx,2013-08-10 14:26:00,
2013-08-10 09:28:00,81.9,74.0,30.25,NW,319,7.4,10.5,78,0.00,,,0.25,TxWx,2013-08-10 14:28:00,
2013-08-10 09:31:00,82.1,74.0,30.25,NNW,342,2.5,3.1,78,0.00,,,0.25,TxWx,2013-08-10 14:31:00,
2013-08-10 09:32:00,82.4,74.0,30.25,NE,49,7.4,8.0,78,0.00,,,0.25,TxWx,2013-08-10 14:32:00,
2013-08-10 09:34:00,82.6,75.0,30.25,North,4,9.9,9.9,77,0.00,,,0.25,TxWx,2013-08-10 14:34:00,
2013-08-10 09:35:00,82.4,74.0,30.25,WNW,297,8.7,8.7,77,0.00,,,0.25,TxWx,2013-08-10 14:35:00,
2013-08-10 09:36:00,82.1,74.0,30.25,North,4,10.5,10.5,76,0.00,,,0.25,TxWx,2013-08-10 14:36:00,
2013-08-10 09:38:00,82.2,74.0,30.25,North,4,10.5,10.5,77,0.00,,,0.25,TxWx,2013-08-10 14:38:00,
2013-08-10 09:39:00,82.2,74.0,30.25,NNW,342,7.4,7.4,77,0.00,,,0.25,TxWx,2013-08-10 14:39:00,
2013-08-10 09:41:00,82.0,74.0,30.25,NNE,27,10.5,10.5,77,0.00,,,0.25,TxWx,2013-08-10 14:41:00,
2013-08-10 09:42:00,82.3,74.0,30.25,NNW,342,5.0,5.6,77,0.00,,,0.25,TxWx,2013-08-10 14:42:00,
2013-08-10 09:43:00,82.4,74.0,30.25,NNE,27,8.0,9.3,77,0.00,,,0.25,TxWx,2013-08-10 14:43:00,
2013-08-10 09:46:00,82.7,75.0,30.25,North,4,6.8,8.0,77,0.00,,,0.25,TxWx,2013-08-10 14:46:00,
2013-08-10 09:47:00,82.8,75.0,30.25,NNE,27,9.3,9.3,77,0.00,,,0.25,TxWx,2013-08-10 14:47:00,
2013-08-10 09:48:00,82.8,75.0,30.25,NNE,27,13.6,14.9,76,0.00,,,0.25,TxWx,2013-08-10 14:48:00,
2013-08-10 09:50:00,82.8,74.0,30.24,North,4,10.5,11.1,76,0.00,,,0.25,TxWx,2013-08-10 14:50:00,
2013-08-10 09:52:00,83.3,75.0,30.24,ESE,117,4.3,5.6,76,0.00,,,0.25,TxWx,2013-08-10 14:52:00,
2013-08-10 09:53:00,83.1,74.0,30.24,NNE,27,9.9,9.9,76,0.00,,,0.25,TxWx,2013-08-10 14:53:00,
2013-08-10 09:54:00,83.3,74.0,30.24,NE,49,8.0,8.7,75,0.00,,,0.25,TxWx,2013-08-10 14:54:00,
2013-08-10 09:55:00,83.5,75.0,30.24,NNE,27,6.8,6.8,75,0.00,,,0.25,TxWx,2013-08-10 14:55:00,
2013-08-10 09:58:00,84.0,75.0,30.24,East,94,4.3,5.6,74,0.00,,,0.25,TxWx,2013-08-10 14:58:00,
2013-08-10 09:59:00,84.0,74.0,30.23,NE,49,6.8,6.8,73,0.00,,,0.25,TxWx,2013-08-10 14:59:00,
2013-08-10 10:00:00,84.2,74.0,30.23,NNE,27,6.8,8.0,73,0.00,,,0.25,TxWx,2013-08-10 15:00:00,
2013-08-10 10:03:00,84.3,74.0,30.23,NNE,27,9.3,10.5,73,0.00,,,0.25,TxWx,2013-08-10 15:03:00,
2013-08-10 10:04:00,84.3,74.0,30.23,NE,49,3.1,3.1,72,0.00,,,0.25,TxWx,2013-08-10 15:04:00,
2013-08-10 10:06:00,84.4,74.0,30.23,East,94,5.0,5.0,72,0.00,,,0.25,TxWx,2013-08-10 15:06:00,
2013-08-10 10:09:00,84.4,74.0,30.23,NE,49,4.3,5.6,71,0.00,,,0.25,TxWx,2013-08-10 15:09:00,
2013-08-10 10:10:00,84.7,74.0,30.23,NE,49,8.7,8.7,71,0.00,,,0.25,TxWx,2013-08-10 15:10:00,
2013-08-10 10:11:00,84.8,74.0,30.23,East,94,5.0,8.0,71,0.00,,,0.25,TxWx,2013-08-10 15:11:00,
2013-08-10 10:12:00,85.0,74.0,30.23,NNE,27,8.0,8.0,71,0.00,,,0.25,TxWx,2013-08-10 15:12:00,
2013-08-10 10:14:00,84.6,74.0,30.23,NNE,27,6.2,6.8,70,0.00,,,0.25,TxWx,2013-08-10 15:14:00,
2013-08-10 10:15:00,84.9,74.0,30.23,NE,49,7.4,8.0,70,0.00,,,0.25,TxWx,2013-08-10 15:15:00,
2013-08-10 10:16:00,84.7,74.0,30.23,NNE,27,6.2,6.8,70,0.00,,,0.25,TxWx,2013-08-10 15:16:00,
2013-08-10 10:17:00,84.8,74.0,30.23,NNE,27,9.3,9.3,70,0.00,,,0.25,TxWx,2013-08-10 15:17:00,
2013-08-10 10:18:00,85.0,74.0,30.23,NNE,27,9.9,9.9,70,0.00,,,0.25,TxWx,2013-08-10 15:18:00,
2013-08-10 10:19:00,84.9,74.0,30.24,North,4,12.4,12.4,70,0.00,,,0.25,TxWx,2013-08-10 15:19:00,
2013-08-10 10:22:00,84.9,74.0,30.23,NNE,27,5.0,5.0,69,0.00,,,0.25,TxWx,2013-08-10 15:22:00,
2013-08-10 10:24:00,85.3,74.0,30.23,NNE,27,6.2,7.4,69,0.00,,,0.25,TxWx,2013-08-10 15:24:00,
2013-08-10 10:27:00,85.8,74.0,30.23,East,94,3.7,4.3,68,0.00,,,0.25,TxWx,2013-08-10 15:27:00,
2013-08-10 10:29:00,85.8,74.0,30.23,NNE,27,6.2,6.8,68,0.00,,,0.25,TxWx,2013-08-10 15:29:00,
2013-08-10 10:30:00,85.9,74.0,30.23,NNE,27,6.2,7.4,68,0.00,,,0.25,TxWx,2013-08-10 15:30:00,
2013-08-10 10:32:00,86.6,75.0,30.23,NNW,342,8.0,8.0,67,0.00,,,0.25,TxWx,2013-08-10 15:32:00,
2013-08-10 10:34:00,86.6,74.0,30.23,NE,49,8.0,8.7,66,0.00,,,0.25,TxWx,2013-08-10 15:34:00,
2013-08-10 10:38:00,86.5,74.0,30.23,East,94,4.3,4.3,66,0.00,,,0.25,TxWx,2013-08-10 15:38:00,
2013-08-10 10:40:00,86.4,73.0,30.23,NNE,27,6.2,6.8,65,0.00,,,0.25,TxWx,2013-08-10 15:40:00,
2013-08-10 10:41:00,86.6,74.0,30.23,NE,49,6.8,7.4,65,0.00,,,0.25,TxWx,2013-08-10 15:41:00,
2013-08-10 10:43:00,86.5,73.0,30.23,NNE,27,8.0,8.0,65,0.00,,,0.25,TxWx,2013-08-10 15:43:00,
2013-08-10 10:46:00,87.0,74.0,30.23,NW,319,2.5,3.7,65,0.00,,,0.25,TxWx,2013-08-10 15:46:00,
2013-08-10 10:47:00,87.1,74.0,30.23,East,94,3.1,3.7,65,0.00,,,0.25,TxWx,2013-08-10 15:47:00,
2013-08-10 10:51:00,86.8,73.0,30.23,SSE,162,7.4,9.3,64,0.00,,,0.25,TxWx,2013-08-10 15:51:00,
2013-08-10 10:52:00,86.4,72.0,30.23,NNE,27,9.3,9.3,64,0.00,,,0.25,TxWx,2013-08-10 15:52:00,
2013-08-10 10:53:00,86.2,72.0,30.23,NNE,27,6.2,6.2,64,0.00,,,0.25,TxWx,2013-08-10 15:53:00,
2013-08-10 10:54:00,86.3,73.0,30.23,NNE,27,6.2,6.2,65,0.00,,,0.25,TxWx,2013-08-10 15:54:00,
2013-08-10 10:55:00,86.7,74.0,30.24,North,4,3.7,5.6,65,0.00,,,0.25,TxWx,2013-08-10 15:55:00,
2013-08-10 10:56:00,86.9,73.0,30.24,NNE,27,6.8,7.4,64,0.00,,,0.25,TxWx,2013-08-10 15:56:00,
2013-08-10 10:57:00,87.3,74.0,30.24,East,94,6.8,9.9,65,0.00,,,0.25,TxWx,2013-08-10 15:57:00,
2013-08-10 10:59:00,87.4,73.0,30.24,NNE,27,7.4,7.4,64,0.00,,,0.25,TxWx,2013-08-10 15:59:00,
2013-08-10 11:00:00,87.4,73.0,30.24,ESE,117,5.0,5.0,63,0.00,,,0.25,TxWx,2013-08-10 16:00:00,
2013-08-10 11:02:00,87.5,72.0,30.24,NNE,27,11.1,11.1,62,0.00,,,0.25,TxWx,2013-08-10 16:02:00,
2013-08-10 11:04:00,87.7,73.0,30.24,NNE,27,9.9,9.9,62,0.00,,,0.25,TxWx,2013-08-10 16:04:00,
2013-08-10 11:05:00,87.4,72.0,30.24,NNE,27,8.7,8.7,62,0.00,,,0.25,TxWx,2013-08-10 16:05:00,
2013-08-10 11:06:00,87.9,73.0,30.24,NNE,27,3.1,3.7,62,0.00,,,0.25,TxWx,2013-08-10 16:06:00,
2013-08-10 11:08:00,87.9,73.0,30.24,NNE,27,3.1,3.7,61,0.00,,,0.25,TxWx,2013-08-10 16:08:00,
2013-08-10 11:09:00,88.1,73.0,30.24,NE,49,9.3,9.3,61,0.00,,,0.25,TxWx,2013-08-10 16:09:00,
2013-08-10 11:11:00,88.1,73.0,30.24,NE,49,6.8,6.8,61,0.00,,,0.25,TxWx,2013-08-10 16:11:00,
2013-08-10 11:15:00,88.2,73.0,30.24,WNW,297,3.7,3.7,61,0.00,,,0.25,TxWx,2013-08-10 16:15:00,
2013-08-10 11:16:00,88.2,73.0,30.24,NNE,27,9.9,9.9,61,0.00,,,0.25,TxWx,2013-08-10 16:16:00,
2013-08-10 11:17:00,88.0,73.0,30.24,North,4,11.1,11.1,61,0.00,,,0.25,TxWx,2013-08-10 16:17:00,
2013-08-10 11:18:00,88.1,73.0,30.24,North,4,8.0,9.9,61,0.00,,,0.25,TxWx,2013-08-10 16:18:00,
2013-08-10 11:21:00,88.3,73.0,30.24,NE,49,6.2,6.2,61,0.00,,,0.25,TxWx,2013-08-10 16:21:00,
2013-08-10 11:22:00,88.6,73.0,30.24,North,4,3.7,4.3,61,0.00,,,0.25,TxWx,2013-08-10 16:22:00,
2013-08-10 11:24:00,88.8,73.0,30.24,WSW,252,3.7,4.3,60,0.00,,,0.25,TxWx,2013-08-10 16:24:00,
2013-08-10 11:27:00,89.0,73.0,30.24,East,94,3.1,3.1,59,0.00,,,0.25,TxWx,2013-08-10 16:27:00,
2013-08-10 11:28:00,88.9,73.0,30.24,East,94,5.0,5.0,59,0.00,,,0.25,TxWx,2013-08-10 16:28:00,
2013-08-10 11:29:00,89.0,73.0,30.24,NE,49,4.3,5.0,59,0.00,,,0.25,TxWx,2013-08-10 16:29:00,
2013-08-10 11:32:00,89.4,72.0,30.24,NNE,27,6.8,8.7,58,0.00,,,0.25,TxWx,2013-08-10 16:32:00,
2013-08-10 11:33:00,89.7,73.0,30.24,NE,49,2.5,3.1,59,0.00,,,0.25,TxWx,2013-08-10 16:33:00,
2013-08-10 11:35:00,89.2,72.0,30.24,ENE,72,7.4,7.4,58,0.00,,,0.25,TxWx,2013-08-10 16:35:00,
2013-08-10 11:38:00,90.1,73.0,30.24,NNE,27,5.0,5.6,58,0.00,,,0.25,TxWx,2013-08-10 16:38:00,
2013-08-10 11:40:00,90.5,73.0,30.24,NNE,27,6.8,6.8,57,0.00,,,0.25,TxWx,2013-08-10 16:40:00,
2013-08-10 11:41:00,90.5,74.0,30.24,NNE,27,5.6,5.6,57,0.00,,,0.25,TxWx,2013-08-10 16:41:00,
2013-08-10 11:44:00,90.6,73.0,30.24,NNW,342,5.6,6.8,57,0.00,,,0.25,TxWx,2013-08-10 16:44:00,
2013-08-10 11:46:00,89.8,72.0,30.24,North,4,8.7,9.9,57,0.00,,,0.25,TxWx,2013-08-10 16:46:00,
2013-08-10 11:49:00,90.0,72.0,30.24,East,94,3.7,3.7,57,0.00,,,0.25,TxWx,2013-08-10 16:49:00,
2013-08-10 11:50:00,89.6,73.0,30.24,NW,319,5.0,5.0,57,0.00,,,0.25,TxWx,2013-08-10 16:50:00,
2013-08-10 11:51:00,89.9,73.0,30.24,NE,49,1.9,2.5,58,0.00,,,0.25,TxWx,2013-08-10 16:51:00,
2013-08-10 11:52:00,90.0,73.0,30.24,NE,49,5.0,5.0,57,0.00,,,0.25,TxWx,2013-08-10 16:52:00,
2013-08-10 11:54:00,89.7,73.0,30.24,North,4,6.2,6.8,57,0.00,,,0.25,TxWx,2013-08-10 16:54:00,
2013-08-10 11:55:00,90.2,73.0,30.24,NNE,27,7.4,7.4,57,0.00,,,0.25,TxWx,2013-08-10 16:55:00,
2013-08-10 11:57:00,90.6,74.0,30.24,NE,49,9.3,10.5,57,0.00,,,0.25,TxWx,2013-08-10 16:57:00,
2013-08-10 11:58:00,90.6,73.0,30.24,NNE,27,5.6,6.8,56,0.00,,,0.25,TxWx,2013-08-10 16:58:00,
2013-08-10 11:59:00,90.8,73.0,30.24,East,94,5.6,5.6,56,0.00,,,0.25,TxWx,2013-08-10 16:59:00,
2013-08-10 12:00:00,91.0,73.0,30.23,East,94,5.0,5.0,56,0.00,,,0.25,TxWx,2013-08-10 17:00:00,
2013-08-10 12:01:00,91.0,73.0,30.23,East,94,3.1,3.1,56,0.00,,,0.25,TxWx,2013-08-10 17:01:00,
2013-08-10 12:03:00,90.7,73.0,30.24,NNE,27,3.1,3.1,56,0.00,,,0.25,TxWx,2013-08-10 17:03:00,
2013-08-10 12:04:00,90.9,73.0,30.24,ENE,72,1.9,1.9,56,0.00,,,0.25,TxWx,2013-08-10 17:04:00,
2013-08-10 12:06:00,91.6,74.0,30.24,NNE,27,6.2,6.2,56,0.00,,,0.25,TxWx,2013-08-10 17:06:00,
2013-08-10 12:07:00,90.7,72.0,30.24,ENE,72,3.1,5.0,55,0.00,,,0.25,TxWx,2013-08-10 17:07:00,
2013-08-10 12:09:00,91.1,72.0,30.24,North,4,9.9,11.1,55,0.00,,,0.25,TxWx,2013-08-10 17:09:00,
2013-08-10 12:12:00,90.5,73.0,30.24,North,4,11.8,13.0,55,0.00,,,0.25,TxWx,2013-08-10 17:12:00,
2013-08-10 12:14:00,90.4,72.0,30.24,North,4,8.7,9.9,56,0.00,,,0.25,TxWx,2013-08-10 17:14:00,
2013-08-10 12:16:00,90.2,72.0,30.24,NNW,342,8.7,8.7,56,0.00,,,0.25,TxWx,2013-08-10 17:16:00,
2013-08-10 12:17:00,90.3,72.0,30.23,NW,319,6.8,6.8,56,0.00,,,0.25,TxWx,2013-08-10 17:17:00,
2013-08-10 12:19:00,90.9,73.0,30.24,North,4,9.9,9.9,55,0.00,,,0.25,TxWx,2013-08-10 17:19:00,
2013-08-10 12:21:00,90.7,73.0,30.24,NE,49,7.4,8.0,55,0.00,,,0.25,TxWx,2013-08-10 17:21:00,
2013-08-10 12:22:00,90.6,73.0,30.24,North,4,9.3,10.5,55,0.00,,,0.25,TxWx,2013-08-10 17:22:00,
2013-08-10 12:24:00,90.9,73.0,30.24,NNW,342,6.8,7.4,56,0.00,,,0.25,TxWx,2013-08-10 17:24:00,
2013-08-10 12:25:00,90.4,72.0,30.24,NNE,27,6.8,7.4,55,0.00,,,0.25,TxWx,2013-08-10 17:25:00,
2013-08-10 12:27:00,90.8,73.0,30.24,NNE,27,8.7,8.7,55,0.00,,,0.25,TxWx,2013-08-10 17:27:00,
2013-08-10 12:29:00,91.1,73.0,30.23,ENE,72,5.0,5.0,56,0.00,,,0.25,TxWx,2013-08-10 17:29:00,
2013-08-10 12:30:00,90.6,72.0,30.24,North,4,7.4,9.3,55,0.00,,,0.25,TxWx,2013-08-10 17:30:00,
2013-08-10 12:33:00,90.7,73.0,30.24,North,4,3.7,4.3,55,0.00,,,0.25,TxWx,2013-08-10 17:33:00,
2013-08-10 12:34:00,91.3,73.0,30.24,NNE,27,11.1,11.1,56,0.00,,,0.25,TxWx,2013-08-10 17:34:00,
2013-08-10 12:35:00,91.3,73.0,30.24,North,4,8.7,8.7,55,0.00,,,0.25,TxWx,2013-08-10 17:35:00,
2013-08-10 12:36:00,91.0,73.0,30.23,NW,319,4.3,5.6,55,0.00,,,0.25,TxWx,2013-08-10 17:36:00,
2013-08-10 12:39:00,91.3,73.0,30.23,ESE,117,5.6,6.2,55,0.00,,,0.25,TxWx,2013-08-10 17:39:00,
2013-08-10 12:40:00,91.3,72.0,30.23,South,184,1.9,1.9,55,0.00,,,0.25,TxWx,2013-08-10 17:40:00,
2013-08-10 12:42:00,91.3,72.0,30.23,NNE,27,2.5,2.5,55,0.00,,,0.25,TxWx,2013-08-10 17:42:00,
2013-08-10 12:45:00,91.3,72.0,30.23,NNW,342,6.8,6.8,55,0.00,,,0.25,TxWx,2013-08-10 17:45:00,
2013-08-10 12:46:00,91.2,72.0,30.23,North,4,5.0,5.0,54,0.00,,,0.25,TxWx,2013-08-10 17:46:00,
2013-08-10 12:47:00,91.7,73.0,30.23,NNE,27,11.8,11.8,54,0.00,,,0.25,TxWx,2013-08-10 17:47:00,
2013-08-10 12:51:00,92.2,73.0,30.23,NE,49,6.8,6.8,54,0.00,,,0.25,TxWx,2013-08-10 17:51:00,
2013-08-10 12:52:00,92.6,74.0,30.23,North,4,7.4,7.4,54,0.00,,,0.25,TxWx,2013-08-10 17:52:00,
2013-08-10 12:53:00,92.3,72.0,30.23,NNE,27,6.8,7.4,53,0.00,,,0.25,TxWx,2013-08-10 17:53:00,
2013-08-10 12:56:00,92.5,72.0,30.24,NNE,27,12.4,12.4,52,0.00,,,0.25,TxWx,2013-08-10 17:56:00,
2013-08-10 12:57:00,92.7,73.0,30.23,North,4,5.6,5.6,52,0.00,,,0.25,TxWx,2013-08-10 17:57:00,
2013-08-10 12:58:00,92.6,73.0,30.23,NNE,27,4.3,5.0,52,0.00,,,0.25,TxWx,2013-08-10 17:58:00,
2013-08-10 12:59:00,92.8,72.0,30.23,East,94,3.7,4.3,52,0.00,,,0.25,TxWx,2013-08-10 17:59:00,
2013-08-10 13:01:00,93.3,72.0,30.23,NE,49,5.6,6.8,52,0.00,,,0.25,TxWx,2013-08-10 18:01:00,
2013-08-10 13:03:00,93.3,72.0,30.23,ESE,117,5.6,6.2,51,0.00,,,0.25,TxWx,2013-08-10 18:03:00,
2013-08-10 13:04:00,93.5,72.0,30.23,NNE,27,7.4,8.7,50,0.00,,,0.25,TxWx,2013-08-10 18:04:00,
2013-08-10 13:06:00,93.5,72.0,30.23,East,94,5.0,5.0,50,0.00,,,0.25,TxWx,2013-08-10 18:06:00,
2013-08-10 13:07:00,93.6,72.0,30.23,NNE,27,4.3,5.0,50,0.00,,,0.25,TxWx,2013-08-10 18:07:00,
2013-08-10 13:08:00,93.8,72.0,30.23,NE,49,4.3,4.3,50,0.00,,,0.25,TxWx,2013-08-10 18:08:00,
2013-08-10 13:09:00,93.5,72.0,30.23,NNE,27,6.2,6.2,50,0.00,,,0.25,TxWx,2013-08-10 18:09:00,
2013-08-10 13:12:00,93.1,72.0,30.23,NW,319,9.3,9.9,50,0.00,,,0.25,TxWx,2013-08-10 18:12:00,
2013-08-10 13:13:00,93.0,72.0,30.23,NNE,27,13.6,13.6,50,0.00,,,0.25,TxWx,2013-08-10 18:13:00,
2013-08-10 13:15:00,93.1,72.0,30.23,NNE,27,9.9,10.5,50,0.00,,,0.25,TxWx,2013-08-10 18:15:00,
2013-08-10 13:18:00,92.8,71.0,30.23,North,4,5.0,6.2,50,0.00,,,0.25,TxWx,2013-08-10 18:18:00,
2013-08-10 13:20:00,93.0,72.0,30.23,North,4,13.0,13.6,51,0.00,,,0.25,TxWx,2013-08-10 18:20:00,
2013-08-10 13:24:00,92.7,72.0,30.23,NNW,342,5.6,6.2,50,0.00,,,0.25,TxWx,2013-08-10 18:24:00,
2013-08-10 13:25:00,92.5,72.0,30.23,NE,49,7.4,8.0,50,0.00,,,0.25,TxWx,2013-08-10 18:25:00,
2013-08-10 13:26:00,92.9,72.0,30.23,ENE,72,3.7,3.7,50,0.00,,,0.25,TxWx,2013-08-10 18:26:00,
2013-08-10 13:30:00,93.5,72.0,30.22,North,4,9.3,9.3,49,0.00,,,0.25,TxWx,2013-08-10 18:30:00,
2013-08-10 13:31:00,93.5,72.0,30.22,North,4,10.5,13.0,49,0.00,,,0.25,TxWx,2013-08-10 18:31:00,
2013-08-10 13:32:00,93.2,71.0,30.22,NNE,27,9.3,9.3,49,0.00,,,0.25,TxWx,2013-08-10 18:32:00,
2013-08-10 13:33:00,93.2,71.0,30.22,ENE,72,4.3,4.3,49,0.00,,,0.25,TxWx,2013-08-10 18:33:00,
2013-08-10 13:34:00,93.3,71.0,30.22,NE,49,8.7,8.7,49,0.00,,,0.25,TxWx,2013-08-10 18:34:00,
2013-08-10 13:36:00,93.4,70.0,30.22,NE,49,7.4,8.7,48,0.00,,,0.25,TxWx,2013-08-10 18:36:00,
2013-08-10 13:37:00,93.7,72.0,30.22,NNW,342,3.7,3.7,49,0.00,,,0.25,TxWx,2013-08-10 18:37:00,
2013-08-10 13:38:00,94.1,72.0,30.22,North,4,9.9,9.9,49,0.00,,,0.25,TxWx,2013-08-10 18:38:00,
2013-08-10 13:39:00,93.6,71.0,30.22,NNW,342,9.9,11.1,48,0.00,,,0.25,TxWx,2013-08-10 18:39:00,
2013-08-10 13:40:00,94.4,71.0,30.22,NNE,27,11.1,13.0,48,0.00,,,0.25,TxWx,2013-08-10 18:40:00,
2013-08-10 13:41:00,94.8,72.0,30.22,North,4,8.0,11.8,48,0.00,,,0.25,TxWx,2013-08-10 18:41:00,
2013-08-10 13:43:00,94.1,71.0,30.21,NE,49,8.7,8.7,47,0.00,,,0.25,TxWx,2013-08-10 18:43:00,
2013-08-10 13:44:00,94.7,72.0,30.22,North,4,12.4,12.4,48,0.00,,,0.25,TxWx,2013-08-10 18:44:00,
2013-08-10 13:46:00,94.1,70.0,30.21,NE,49,10.5,10.5,47,0.00,,,0.25,TxWx,2013-08-10 18:46:00,
2013-08-10 13:48:00,93.9,70.0,30.21,NNE,27,7.4,7.4,47,0.00,,,0.25,TxWx,2013-08-10 18:48:00,
2013-08-10 13:49:00,94.6,72.0,30.21,NNW,342,2.5,2.5,47,0.00,,,0.25,TxWx,2013-08-10 18:49:00,
2013-08-10 13:51:00,94.9,71.0,30.21,NE,49,6.2,6.8,47,0.00,,,0.25,TxWx,2013-08-10 18:51:00,
2013-08-10 13:52:00,94.4,70.0,30.21,NNE,27,14.9,14.9,46,0.00,,,0.25,TxWx,2013-08-10 18:52:00,
2013-08-10 13:55:00,94.4,70.0,30.21,NE,49,6.2,8.0,46,0.00,,,0.25,TxWx,2013-08-10 18:55:00,
2013-08-10 13:56:00,94.6,71.0,30.21,NNE,27,11.1,11.1,46,0.00,,,0.25,TxWx,2013-08-10 18:56:00,
2013-08-10 13:59:00,93.9,70.0,30.21,NE,49,11.1,13.0,46,0.00,,,0.25,TxWx,2013-08-10 18:59:00,
2013-08-10 14:00:00,93.3,69.0,30.21,North,4,13.0,13.0,47,0.00,,,0.25,TxWx,2013-08-10 19:00:00,
2013-08-10 14:01:00,93.4,69.0,30.21,North,4,10.5,10.5,47,0.00,,,0.25,TxWx,2013-08-10 19:01:00,
2013-08-10 14:03:00,93.5,70.0,30.21,North,4,4.3,5.6,47,0.00,,,0.25,TxWx,2013-08-10 19:03:00,
2013-08-10 14:04:00,93.9,71.0,30.21,ESE,117,2.5,3.1,47,0.00,,,0.25,TxWx,2013-08-10 19:04:00,
2013-08-10 14:06:00,94.2,70.0,30.20,East,94,6.2,6.8,47,0.00,,,0.25,TxWx,2013-08-10 19:06:00,
2013-08-10 14:08:00,94.9,71.0,30.21,ESE,117,5.0,6.8,47,0.00,,,0.25,TxWx,2013-08-10 19:08:00,
2013-08-10 14:10:00,95.2,71.0,30.20,NNE,27,3.1,3.1,46,0.00,,,0.25,TxWx,2013-08-10 19:10:00,
2013-08-10 14:12:00,94.5,71.0,30.21,NNE,27,10.5,11.1,46,0.00,,,0.25,TxWx,2013-08-10 19:12:00,
2013-08-10 14:13:00,94.2,70.0,30.20,NNE,27,7.4,7.4,46,0.00,,,0.25,TxWx,2013-08-10 19:13:00,
2013-08-10 14:14:00,94.7,71.0,30.20,NNE,27,5.0,5.6,47,0.00,,,0.25,TxWx,2013-08-10 19:14:00,
2013-08-10 14:15:00,94.6,71.0,30.20,NNE,27,8.7,9.9,46,0.00,,,0.25,TxWx,2013-08-10 19:15:00,
2013-08-10 14:17:00,94.2,69.0,30.20,NNE,27,11.1,11.8,45,0.00,,,0.25,TxWx,2013-08-10 19:17:00,
2013-08-10 14:19:00,94.3,69.0,30.20,NNE,27,7.4,7.4,45,0.00,,,0.25,TxWx,2013-08-10 19:19:00,
2013-08-10 14:20:00,93.9,69.0,30.20,North,4,9.3,9.9,45,0.00,,,0.25,TxWx,2013-08-10 19:20:00,
2013-08-10 14:21:00,94.3,70.0,30.20,ENE,72,5.0,6.2,46,0.00,,,0.25,TxWx,2013-08-10 19:21:00,
2013-08-10 14:22:00,95.3,71.0,30.20,NNE,27,8.0,8.0,46,0.00,,,0.25,TxWx,2013-08-10 19:22:00,
2013-08-10 14:23:00,95.4,70.0,30.20,East,94,3.7,4.3,45,0.00,,,0.25,TxWx,2013-08-10 19:23:00,
2013-08-10 14:25:00,95.9,70.0,30.20,ENE,72,3.7,3.7,44,0.00,,,0.25,TxWx,2013-08-10 19:25:00,
2013-08-10 14:26:00,95.9,70.0,30.20,NE,49,5.6,5.6,44,0.00,,,0.25,TxWx,2013-08-10 19:26:00,
2013-08-10 14:27:00,95.8,70.0,30.20,North,4,6.2,6.2,44,0.00,,,0.25,TxWx,2013-08-10 19:27:00,
2013-08-10 14:28:00,95.3,70.0,30.20,NNW,342,6.2,8.0,44,0.00,,,0.25,TxWx,2013-08-10 19:28:00,
2013-08-10 14:29:00,95.8,70.0,30.20,NE,49,6.8,6.8,44,0.00,,,0.25,TxWx,2013-08-10 19:29:00,
2013-08-10 14:31:00,96.1,70.0,30.20,NNE,27,3.7,4.3,44,0.00,,,0.25,TxWx,2013-08-10 19:31:00,
2013-08-10 14:33:00,96.2,70.0,30.20,North,4,7.4,7.4,44,0.00,,,0.25,TxWx,2013-08-10 19:33:00,
2013-08-10 14:34:00,94.9,69.0,30.20,North,4,2.5,3.1,44,0.00,,,0.25,TxWx,2013-08-10 19:34:00,
2013-08-10 14:35:00,94.9,70.0,30.20,NNE,27,3.7,4.3,44,0.00,,,0.25,TxWx,2013-08-10 19:35:00,
2013-08-10 14:38:00,95.7,70.0,30.20,NNE,27,6.8,7.4,44,0.00,,,0.25,TxWx,2013-08-10 19:38:00,
2013-08-10 14:39:00,95.6,70.0,30.20,North,4,7.4,7.4,44,0.00,,,0.25,TxWx,2013-08-10 19:39:00,
2013-08-10 14:41:00,96.3,70.0,30.19,NE,49,4.3,5.0,44,0.00,,,0.25,TxWx,2013-08-10 19:41:00,
2013-08-10 14:44:00,96.0,70.0,30.19,NNE,27,10.5,10.5,43,0.00,,,0.25,TxWx,2013-08-10 19:44:00,
2013-08-10 14:46:00,94.9,69.0,30.19,NNW,342,8.7,8.7,44,0.00,,,0.25,TxWx,2013-08-10 19:46:00,
2013-08-10 14:47:00,95.0,70.0,30.19,NNE,27,9.9,11.8,44,0.00,,,0.25,TxWx,2013-08-10 19:47:00,
2013-08-10 14:49:00,95.8,71.0,30.19,NNE,27,5.6,8.0,45,0.00,,,0.25,TxWx,2013-08-10 19:49:00,
2013-08-10 14:51:00,96.3,69.0,30.19,NNE,27,10.5,10.5,43,0.00,,,0.25,TxWx,2013-08-10 19:51:00,
2013-08-10 14:52:00,96.4,70.0,30.19,NNE,27,9.9,9.9,43,0.00,,,0.25,TxWx,2013-08-10 19:52:00,
2013-08-10 14:54:00,95.3,69.0,30.18,NNW,342,5.0,5.6,44,0.00,,,0.25,TxWx,2013-08-10 19:54:00,
2013-08-10 14:55:00,94.8,69.0,30.18,NNW,342,8.0,8.7,44,0.00,,,0.25,TxWx,2013-08-10 19:55:00,
2013-08-10 14:57:00,96.0,70.0,30.18,NE,49,6.2,6.8,44,0.00,,,0.25,TxWx,2013-08-10 19:57:00,
2013-08-10 14:58:00,96.3,70.0,30.18,NNW,342,5.0,5.0,44,0.00,,,0.25,TxWx,2013-08-10 19:58:00,
2013-08-10 15:00:00,95.7,70.0,30.18,NW,319,9.3,10.5,44,0.00,,,0.25,TxWx,2013-08-10 20:00:00,
2013-08-10 15:02:00,96.6,71.0,30.18,NNW,342,8.7,11.1,43,0.00,,,0.25,TxWx,2013-08-10 20:02:00,
2013-08-10 15:03:00,96.3,69.0,30.18,East,94,12.4,12.4,42,0.00,,,0.25,TxWx,2013-08-10 20:03:00,
2013-08-10 15:05:00,96.0,69.0,30.18,NNE,27,9.3,9.3,42,0.00,,,0.25,TxWx,2013-08-10 20:05:00,
2013-08-10 15:07:00,95.6,69.0,30.18,NNE,27,11.8,11.8,42,0.00,,,0.25,TxWx,2013-08-10 20:07:00,
2013-08-10 15:09:00,96.2,69.0,30.18,NNE,27,14.9,15.5,43,0.00,,,0.25,TxWx,2013-08-10 20:09:00,
2013-08-10 15:11:00,95.5,69.0,30.18,North,4,9.3,9.3,42,0.00,,,0.25,TxWx,2013-08-10 20:11:00,
2013-08-10 15:12:00,95.8,69.0,30.18,North,4,6.2,6.8,42,0.00,,,0.25,TxWx,2013-08-10 20:12:00,
2013-08-10 15:13:00,95.6,69.0,30.18,NNE,27,7.4,7.4,42,0.00,,,0.25,TxWx,2013-08-10 20:13:00,
2013-08-10 15:16:00,96.0,69.0,30.18,NE,49,5.0,5.0,43,0.00,,,0.25,TxWx,2013-08-10 20:16:00,
2013-08-10 15:17:00,96.9,70.0,30.18,North,4,5.6,5.6,42,0.00,,,0.25,TxWx,2013-08-10 20:17:00,
2013-08-10 15:19:00,96.5,69.0,30.17,NNW,342,8.0,8.0,41,0.00,,,0.25,TxWx,2013-08-10 20:19:00,
2013-08-10 15:20:00,96.0,68.0,30.17,North,4,5.6,6.8,41,0.00,,,0.25,TxWx,2013-08-10 20:20:00,
2013-08-10 15:21:00,96.6,69.0,30.17,NNE,27,10.5,13.0,41,0.00,,,0.25,TxWx,2013-08-10 20:21:00,
2013-08-10 15:22:00,96.3,68.0,30.17,NNE,27,8.0,8.0,41,0.00,,,0.25,TxWx,2013-08-10 20:22:00,
2013-08-10 15:26:00,96.0,69.0,30.17,NNW,342,8.7,8.7,43,0.00,,,0.25,TxWx,2013-08-10 20:26:00,
2013-08-10 15:27:00,94.9,68.0,30.17,NNW,342,8.7,9.3,42,0.00,,,0.25,TxWx,2013-08-10 20:27:00,
2013-08-10 15:28:00,94.9,69.0,30.17,NNW,342,8.7,8.7,43,0.00,,,0.25,TxWx,2013-08-10 20:28:00,
2013-08-10 15:33:00,96.0,69.0,30.17,NNE,27,2.5,3.1,43,0.00,,,0.25,TxWx,2013-08-10 20:33:00,
2013-08-10 15:35:00,96.2,69.0,30.17,North,4,6.8,6.8,43,0.00,,,0.25,TxWx,2013-08-10 20:35:00,
2013-08-10 15:39:00,96.2,69.0,30.17,North,4,9.3,11.1,42,0.00,,,0.25,TxWx,2013-08-10 20:39:00,
2013-08-10 15:40:00,96.3,69.0,30.17,North,4,9.9,9.9,42,0.00,,,0.25,TxWx,2013-08-10 20:40:00,
2013-08-10 15:42:00,96.1,69.0,30.17,NNW,342,6.8,8.0,42,0.00,,,0.25,TxWx,2013-08-10 20:42:00,
2013-08-10 15:45:00,95.7,69.0,30.16,NNW,342,9.9,12.4,42,0.00,,,0.25,TxWx,2013-08-10 20:45:00,
2013-08-10 15:46:00,96.2,69.0,30.16,NW,319,8.0,8.7,42,0.00,,,0.25,TxWx,2013-08-10 20:46:00,
2013-08-10 15:48:00,96.3,69.0,30.16,North,4,7.4,7.4,42,0.00,,,0.25,TxWx,2013-08-10 20:48:00,
2013-08-10 15:50:00,96.5,70.0,30.16,NNW,342,13.0,13.0,42,0.00,,,0.25,TxWx,2013-08-10 20:50:00,
2013-08-10 15:51:00,96.0,69.0,30.16,NNW,342,6.2,6.8,42,0.00,,,0.25,TxWx,2013-08-10 20:51:00,
2013-08-10 15:52:00,96.4,69.0,30.16,North,4,7.4,8.7,42,0.00,,,0.25,TxWx,2013-08-10 20:52:00,
2013-08-10 15:53:00,97.0,70.0,30.16,SSE,162,8.7,11.1,42,0.00,,,0.25,TxWx,2013-08-10 20:53:00,
2013-08-10 15:56:00,96.6,69.0,30.16,NNE,27,5.0,5.6,41,0.00,,,0.25,TxWx,2013-08-10 20:56:00,
2013-08-10 15:57:00,96.7,69.0,30.16,East,94,3.1,3.1,41,0.00,,,0.25,TxWx,2013-08-10 20:57:00,
2013-08-10 15:58:00,97.2,70.0,30.16,NNE,27,9.3,9.9,42,0.00,,,0.25,TxWx,2013-08-10 20:58:00,
2013-08-10 15:59:00,97.0,69.0,30.16,NNE,27,8.0,9.3,41,0.00,,,0.25,TxWx,2013-08-10 20:59:00,
2013-08-10 16:01:00,96.9,69.0,30.16,NNW,342,6.8,6.8,41,0.00,,,0.25,TxWx,2013-08-10 21:01:00,
2013-08-10 16:02:00,97.3,69.0,30.16,NNE,27,5.6,5.6,41,0.00,,,0.25,TxWx,2013-08-10 21:02:00,
2013-08-10 16:04:00,97.1,69.0,30.16,NE,49,8.0,8.0,41,0.00,,,0.25,TxWx,2013-08-10 21:04:00,
2013-08-10 16:06:00,97.4,69.0,30.16,NNE,27,8.0,8.0,41,0.00,,,0.25,TxWx,2013-08-10 21:06:00,
2013-08-10 16:08:00,97.6,69.0,30.16,WNW,297,8.7,8.7,40,0.00,,,0.25,TxWx,2013-08-10 21:08:00,
2013-08-10 16:09:00,97.2,68.0,30.16,North,4,8.0,11.1,39,0.00,,,0.25,TxWx,2013-08-10 21:09:00,